[[{"header":{"parameterUnit":"m.s-1","parameterCategory":1,"la1":30.2992,"la2":30.254,"lo1":-89.0895,"lo2":-89.0443,"dy":0.0025,"dx":0.0025,"nx":19,"ny":19,"refTime":"2026-05-07T21:00:00:Z","depth":0,"parameterNumber":2,"parameterNumberName":"U-component_of_WINDS"},"data":[0,0,0,-0.5954,-0.5955,-0.6007,-0.6007,-0.6063,-0.6064,0,0,0,0,0,0,0,0,0,0,0,-0.5933,-0.5933,-0.5954,-0.5955,-0.6007,-0.6007,-0.6063,-0.6064,0,0,0,0,0,0,0,0,0,0,0,-0.5933,-0.5933,-0.5933,-0.5956,-0.6007,-0.6007,-0.6063,-0.6028,0,0,0,0,0,0,0,0,0,0,-0.598,-0.5954,-0.5933,-0.5933,-0.5956,-0.6007,-0.6007,-0.6026,-0.603,-0.6036,0,-0.6039,0,-0.6052,-0.6067,-0.6067,0,0,0,-0.596,-0.5951,-0.597,-0.5933,-0.5956,-0.6007,-0.5985,-0.6029,-0.6033,-0.6041,-0.604,-0.6042,-0.6053,-0.6067,-0.6067,-0.6082,-0.6082,0,0,-0.5957,-0.5939,-0.5967,-0.5972,-0.5963,-0.5983,-0.5987,-0.6031,-0.6029,-0.604,-0.6044,-0.6054,-0.6067,-0.6068,-0.6082,-0.6082,0,0,0,-0.5946,-0.5937,-0.5955,-0.597,-0.598,-0.5985,-0.5989,-0.6027,-0.6035,-0.6044,-0.6054,-0.6068,-0.6068,-0.6082,-0.6082,-0.6056,0,0,0,-0.5945,-0.593,-0.5954,-0.5943,-0.5979,-0.6004,-0.5983,-0.6032,-0.6037,-0.6054,-0.6068,-0.6069,-0.6083,-0.6082,-0.6057,-0.6047,0,0,0,-0.5932,-0.5929,-0.5934,-0.5942,-0.5964,-0.6004,-0.6014,-0.6033,-0.6043,-0.6067,-0.6069,-0.6083,-0.6082,-0.6058,-0.6049,-0.6045,0,0,0,-0.5913,-0.5911,-0.5933,-0.5935,-0.5963,-0.5987,-0.6014,-0.6033,-0.605,-0.6068,-0.6083,-0.6082,-0.6058,-0.605,-0.6046,-0.6038,-0.6034,0,0,-0.59,-0.5909,-0.5911,-0.5933,-0.5948,-0.5981,-0.5992,-0.6026,-0.6045,-0.6069,-0.6069,-0.6057,-0.6049,-0.6045,-0.6013,-0.6009,0,0,0,-0.5901,-0.5902,-0.591,-0.5925,-0.595,-0.597,-0.6004,-0.6016,-0.6037,-0.6053,-0.6055,-0.6051,-0.6049,-0.6047,-0.6043,-0.6043,-0.608,-0.608,-0.608,-0.5857,-0.5881,-0.5886,-0.5916,-0.593,-0.5964,-0.5978,-0.6,-0.6021,-0.6021,-0.6028,-0.6005,-0.6002,-0.5999,-0.5999,-0.6026,-0.6026,-0.6026,-0.6026,-0.584,-0.5846,-0.5872,-0.5887,-0.5912,-0.5925,-0.5957,-0.5971,-0.5987,-0.6002,-0.6002,-0.6017,-0.5994,-0.5995,-0.6024,-0.6024,-0.6025,-0.6025,-0.6025,-0.5815,-0.5821,-0.5835,-0.5859,-0.5874,-0.5904,-0.5917,-0.594,-0.5962,-0.5962,-0.5972,-0.5972,-0.5975,-0.5965,-0.5965,-0.5965,-0.5965,-0.5964,-0.5964,-0.5782,-0.5799,-0.5807,-0.5832,-0.5844,-0.5862,-0.5895,-0.5908,-0.5928,-0.5943,-0.5944,-0.5964,-0.5987,-0.5992,-0.5963,-0.5964,-0.5964,-0.5964,-0.5964,-0.5757,-0.5766,-0.5778,-0.579,-0.5821,-0.5834,-0.5862,-0.5885,-0.5899,-0.5905,-0.5925,-0.5938,-0.5949,-0.5952,-0.5956,-0.592,-0.592,-0.592,-0.592,-0.5735,-0.5743,-0.576,-0.5777,-0.5796,-0.5822,-0.5835,-0.586,-0.5888,-0.5898,-0.5906,-0.5914,-0.5916,-0.5926,-0.5929,-0.5934,-0.5892,-0.5892,-0.5892,-0.5721,-0.5731,-0.5738,-0.5763,-0.5789,-0.581,-0.5822,-0.5841,-0.5874,-0.5892,-0.5906,-0.5907,-0.592,-0.5923,-0.5941,-0.5946,-0.5955,0,0]},{"header":{"parameterUnit":"m.s-1","parameterCategory":1,"la1":30.2992,"la2":30.254,"lo1":-89.0895,"lo2":-89.0443,"dy":0.0025,"dx":0.0025,"nx":19,"ny":19,"refTime":"2026-05-07T21:00:00:Z","depth":0,"parameterNumber":3,"parameterNumberName":"V-component_of_WINDS"},"data":[0,0,0,4.7854,4.7857,4.7949,4.7949,4.8081,4.8082,0,0,0,0,0,0,0,0,0,0,0,4.7838,4.784,4.7854,4.7857,4.7949,4.7949,4.8081,4.8082,0,0,0,0,0,0,0,0,0,0,0,4.7838,4.7839,4.7841,4.7857,4.7949,4.7949,4.808,4.8005,0,0,0,0,0,0,0,0,0,0,4.7913,4.791,4.7839,4.7841,4.7858,4.7949,4.7949,4.8001,4.801,4.8046,0,4.8084,0,4.8086,4.8092,4.8093,0,0,0,4.7848,4.7903,4.7918,4.7841,4.7859,4.7949,4.7905,4.8006,4.8016,4.8058,4.8086,4.809,4.8088,4.8093,4.8094,4.834,4.8341,0,0,4.7843,4.7861,4.7912,4.7925,4.7915,4.7902,4.7908,4.8012,4.8042,4.8086,4.8093,4.809,4.8094,4.8095,4.8338,4.834,0,0,0,4.7834,4.7858,4.7869,4.792,4.7936,4.7905,4.7911,4.8038,4.804,4.8094,4.8092,4.8095,4.8097,4.8337,4.8339,4.8436,0,0,0,4.7831,4.7853,4.7868,4.7879,4.7934,4.7989,4.7936,4.8033,4.8044,4.8091,4.8095,4.8098,4.8335,4.8338,4.843,4.8479,0,0,0,4.7828,4.7852,4.787,4.788,4.7921,4.7986,4.7995,4.8035,4.8043,4.8093,4.8099,4.8334,4.8337,4.8424,4.847,4.855,0,0,0,4.7831,4.7954,4.7872,4.8007,4.792,4.8046,4.7994,4.8086,4.814,4.8096,4.8335,4.8339,4.8422,4.8464,4.8544,4.8621,4.8655,0,0,4.7996,4.7974,4.8052,4.7982,4.8128,4.8031,4.8189,4.8221,4.8208,4.8296,4.8302,4.8432,4.8469,4.8548,4.8837,4.8865,0,0,0,4.8111,4.8167,4.8202,4.8256,4.8284,4.8311,4.8317,4.8328,4.8403,4.8258,4.8481,4.8503,4.8549,4.8585,4.8608,4.8646,4.8356,4.8356,4.8355,4.8371,4.8348,4.8476,4.8465,4.8517,4.8522,4.8562,4.8577,4.8538,4.8591,4.8618,4.8796,4.8839,4.8856,4.8897,4.8656,4.8656,4.8657,4.8657,4.8611,4.8687,4.8633,4.8738,4.8713,4.8799,4.8807,4.8776,4.8852,4.8774,4.8813,4.8731,4.8887,4.8921,4.8664,4.8663,4.8662,4.8661,4.8661,4.8779,4.8812,4.8825,4.89,4.896,4.8942,4.9018,4.8991,4.8966,4.9005,4.903,4.9029,4.9024,4.9019,4.9019,4.902,4.9021,4.9021,4.9021,4.895,4.8961,4.903,4.9069,4.91,4.9136,4.9141,4.9169,4.9194,4.9168,4.9168,4.9124,4.8906,4.8853,4.9031,4.9029,4.9028,4.9027,4.9026,4.9204,4.9142,4.9248,4.9279,4.9323,4.9383,4.9348,4.9408,4.9427,4.9465,4.9412,4.9255,4.923,4.9212,4.9167,4.9416,4.9416,4.9416,4.9416,4.9348,4.9333,4.9435,4.9486,4.9532,4.951,4.9628,4.9632,4.9625,4.9635,4.9595,4.9533,4.9515,4.9501,4.9476,4.9434,4.9746,4.9746,4.9746,4.9503,4.9491,4.9598,4.9593,4.9624,4.9651,4.9761,4.982,4.9799,4.9759,4.9643,4.9629,4.9529,4.9497,4.9457,4.9419,4.9341,0,0]}]]